| time (UTC) | temp C | wind direction | speed KPH | gust KPH | rain 1hr cm | rain 24hr cm | rain mn cm | humidity % | barometer mb |
| 20260505073222 | 12 | 252 | 0.0 | 0.0 | 0.00 | 0.00 | 0.00 | 78 | 1016.9 |
| 20260505072718 | 13 | 252 | 0.0 | 0.0 | 0.00 | 0.00 | 0.00 | 76 | 1016.8 |
| 20260505072214 | 13 | 251 | 0.0 | 0.0 | 0.00 | 0.00 | 0.00 | 76 | 1016.8 |
| 20260505071709 | 13 | 257 | 0.0 | 0.0 | 0.00 | 0.00 | 0.00 | 74 | 1016.9 |
| 20260505071207 | 14 | 249 | 0.0 | 1.6 | 0.00 | 0.00 | 0.00 | 72 | 1016.8 |
| 20260505070705 | 14 | 222 | 0.0 | 3.2 | 0.00 | 0.00 | 0.00 | 72 | 1016.7 |
| 20260505070201 | 14 | 246 | 0.0 | 1.6 | 0.00 | 0.00 | 0.00 | 71 | 1016.7 |
| 20260505065656 | 14 | 244 | 0.0 | 0.0 | 0.00 | 0.00 | 0.00 | 72 | 1016.8 |
| 20260505065154 | 14 | 249 | 0.0 | 1.6 | 0.00 | 0.00 | 0.00 | 72 | 1016.7 |
| 20260505064650 | 14 | 227 | 0.0 | 4.8 | 0.00 | 0.00 | 0.00 | 71 | 1016.8 |
| 20260505064149 | 14 | 245 | 0.0 | 0.0 | 0.00 | 0.00 | 0.00 | 72 | 1016.7 |
| 20260505063646 | 14 | 244 | 0.0 | 0.0 | 0.00 | 0.00 | 0.00 | 71 | 1016.9 |
| 20260505063142 | 15 | 246 | 0.0 | 0.0 | 0.00 | 0.00 | 0.00 | 70 | 1016.8 |
| 20260505062638 | 15 | 252 | 0.0 | 3.2 | 0.00 | 0.00 | 0.00 | 69 | 1016.7 |
| 20260505062136 | 15 | 254 | 0.0 | 1.6 | 0.00 | 0.00 | 0.00 | 68 | 1016.8 |
| 20260505061633 | 15 | 181 | 0.0 | 1.6 | 0.00 | 0.00 | 0.00 | 68 | 1017.0 |
| 20260505061131 | 15 | 216 | 0.0 | 3.2 | 0.00 | 0.00 | 0.00 | 67 | 1016.9 |
| 20260505060628 | 15 | 178 | 0.0 | 0.0 | 0.00 | 0.00 | 0.00 | 67 | 1016.9 |
| 20260505060125 | 15 | 246 | 0.0 | 1.6 | 0.00 | 0.00 | 0.00 | 66 | 1016.9 |
| 20260505055620 | 16 | 240 | 0.0 | 11.3 | 0.00 | 0.00 | 0.00 | 65 | 1016.8 |
| 20260505055117 | 16 | 220 | 1.6 | 8.0 | 0.00 | 0.00 | 0.00 | 65 | 1016.9 |
| 20260505054614 | 16 | 249 | 0.0 | 9.7 | 0.00 | 0.00 | 0.00 | 64 | 1017.1 |
| 20260505054112 | 16 | 268 | 0.0 | 0.0 | 0.00 | 0.00 | 0.00 | 64 | 1017.1 |
| 20260505053609 | 16 | 63 | 0.0 | 1.6 | 0.00 | 0.00 | 0.00 | 64 | 1016.9 |
| 20260505053106 | 16 | 206 | 1.6 | 4.8 | 0.00 | 0.00 | 0.00 | 63 | 1017.0 |
| 20260505052603 | 15 | 195 | 0.0 | 1.6 | 0.00 | 0.00 | 0.00 | 63 | 1017.1 |
| 20260505052100 | 15 | 154 | 0.0 | 0.0 | 0.00 | 0.00 | 0.00 | 63 | 1017.1 |
| 20260505051557 | 15 | 159 | 0.0 | 0.0 | 0.00 | 0.00 | 0.00 | 64 | 1017.1 |
| 20260505051055 | 13 | 247 | 0.0 | 1.6 | 0.00 | 0.00 | 0.00 | 66 | 1017.1 |
| 20260505050553 | 12 | 301 | 0.0 | 0.0 | 0.00 | 0.00 | 0.00 | 74 | 1017.2 |
| 20260505041520 | 12 | 247 | 0.0 | 0.0 | 0.00 | 0.00 | 0.00 | 77 | 1017.0 |
| 20260505041018 | 12 | 259 | 0.0 | 0.0 | 0.00 | 0.00 | 0.00 | 78 | 1016.9 |
| 20260505040515 | 12 | 247 | 0.0 | 0.0 | 0.00 | 0.00 | 0.00 | 78 | 1017.0 |
| 20260505040012 | 12 | 258 | 0.0 | 0.0 | 0.00 | 0.00 | 0.00 | 77 | 1017.4 |
| 20260505035508 | 12 | 256 | 0.0 | 0.0 | 0.00 | 0.00 | 0.00 | 77 | 1017.3 |
| 20260505035005 | 12 | 270 | 0.0 | 0.0 | 0.00 | 0.00 | 0.00 | 76 | 1017.3 |
| 20260505034501 | 12 | 270 | 0.0 | 0.0 | 0.00 | 0.00 | 0.00 | 76 | 1017.0 |
| 20260505033959 | 12 | 275 | 0.0 | 0.0 | 0.00 | 0.00 | 0.00 | 77 | 1017.0 |
| 20260505033455 | 12 | 265 | 0.0 | 0.0 | 0.00 | 0.00 | 0.00 | 77 | 1017.1 |
| 20260505032954 | 11 | 259 | 0.0 | 0.0 | 0.00 | 0.00 | 0.00 | 78 | 1017.2 |
| 20260505032451 | 11 | 274 | 0.0 | 0.0 | 0.00 | 0.00 | 0.00 | 78 | 1017.3 |
| 20260505031947 | 11 | 274 | 0.0 | 0.0 | 0.00 | 0.00 | 0.00 | 77 | 1017.2 |
| 20260505031444 | 11 | 274 | 0.0 | 0.0 | 0.00 | 0.00 | 0.00 | 77 | 1017.0 |
| 20260505030941 | 11 | 275 | 0.0 | 0.0 | 0.00 | 0.00 | 0.00 | 77 | 1017.1 |
| 20260505030437 | 11 | 275 | 0.0 | 0.0 | 0.00 | 0.00 | 0.00 | 77 | 1017.3 |
| 20260505025932 | 12 | 248 | 0.0 | 0.0 | 0.00 | 0.00 | 0.00 | 77 | 1017.1 |
| 20260505025430 | 12 | 248 | 0.0 | 0.0 | 0.00 | 0.00 | 0.00 | 76 | 1017.2 |
| 20260505024929 | 12 | 248 | 0.0 | 0.0 | 0.00 | 0.00 | 0.00 | 76 | 1017.0 |
| 20260505024426 | 12 | 248 | 0.0 | 0.0 | 0.00 | 0.00 | 0.00 | 76 | 1017.1 |
| 20260505023923 | 12 | 248 | 0.0 | 0.0 | 0.00 | 0.00 | 0.00 | 75 | 1017.0 |
| 20260505023420 | 12 | 248 | 0.0 | 0.0 | 0.00 | 0.00 | 0.00 | 75 | 1017.1 |
| 20260505022917 | 12 | 248 | 0.0 | 0.0 | 0.00 | 0.00 | 0.00 | 74 | 1017.0 |
| 20260505022414 | 12 | 248 | 0.0 | 0.0 | 0.00 | 0.00 | 0.00 | 73 | 1017.0 |
| 20260505021911 | 13 | 248 | 0.0 | 0.0 | 0.00 | 0.00 | 0.00 | 72 | 1016.9 |
| 20260505021408 | 13 | 248 | 0.0 | 0.0 | 0.00 | 0.00 | 0.00 | 72 | 1017.0 |
| 20260505020903 | 13 | 247 | 0.0 | 0.0 | 0.00 | 0.00 | 0.00 | 72 | 1016.9 |
| 20260505020359 | 13 | 248 | 0.0 | 0.0 | 0.00 | 0.00 | 0.00 | 71 | 1016.7 |
| 20260505015856 | 13 | 248 | 0.0 | 0.0 | 0.00 | 0.00 | 0.00 | 70 | 1016.7 |
| 20260505015353 | 13 | 248 | 0.0 | 0.0 | 0.00 | 0.00 | 0.00 | 69 | 1016.9 |
| 20260505014851 | 14 | 251 | 0.0 | 0.0 | 0.00 | 0.00 | 0.00 | 69 | 1016.7 |
| 20260505014347 | 14 | 287 | 0.0 | 0.0 | 0.00 | 0.00 | 0.00 | 68 | 1016.7 |
| 20260505013844 | 15 | 288 | 0.0 | 0.0 | 0.00 | 0.00 | 0.00 | 67 | 1016.7 |
| 20260505013341 | 15 | 288 | 0.0 | 0.0 | 0.00 | 0.00 | 0.00 | 66 | 1016.6 |
| 20260505012840 | 15 | 289 | 0.0 | 0.0 | 0.00 | 0.00 | 0.00 | 66 | 1016.5 |
| 20260505012337 | 15 | 289 | 0.0 | 0.0 | 0.00 | 0.00 | 0.00 | 64 | 1016.5 |
| 20260505011833 | 15 | 289 | 0.0 | 0.0 | 0.00 | 0.00 | 0.00 | 64 | 1016.4 |
| 20260505011330 | 16 | 289 | 0.0 | 0.0 | 0.00 | 0.00 | 0.00 | 64 | 1016.2 |
| 20260505010826 | 16 | 289 | 0.0 | 0.0 | 0.00 | 0.00 | 0.00 | 62 | 1016.4 |
| 20260505010322 | 16 | 289 | 0.0 | 0.0 | 0.00 | 0.00 | 0.00 | 61 | 1016.3 |
| 20260505005818 | 17 | 289 | 0.0 | 0.0 | 0.00 | 0.00 | 0.00 | 60 | 1016.1 |
| 20260505005315 | 17 | 288 | 0.0 | 0.0 | 0.00 | 0.00 | 0.00 | 56 | 1016.1 |
| 20260505004813 | 17 | 289 | 0.0 | 0.0 | 0.00 | 0.00 | 0.00 | 54 | 1016.1 |
| 20260505004309 | 18 | 289 | 0.0 | 0.0 | 0.00 | 0.00 | 0.00 | 50 | 1016.1 |
| 20260505003806 | 18 | 289 | 0.0 | 0.0 | 0.00 | 0.00 | 0.00 | 49 | 1016.0 |
| 20260505003303 | 18 | 288 | 0.0 | 0.0 | 0.00 | 0.00 | 0.00 | 48 | 1016.2 |
| 20260505002759 | 19 | 288 | 0.0 | 0.0 | 0.00 | 0.00 | 0.00 | 46 | 1015.9 |
| 20260505002257 | 20 | 288 | 0.0 | 0.0 | 0.00 | 0.00 | 0.00 | 44 | 1015.8 |
| 20260505001755 | 20 | 290 | 0.0 | 0.0 | 0.00 | 0.00 | 0.00 | 43 | 1015.7 |
| 20260505001252 | 20 | 283 | 0.0 | 0.0 | 0.00 | 0.00 | 0.00 | 41 | 1015.8 |
| 20260505000749 | 21 | 283 | 0.0 | 0.0 | 0.00 | 0.00 | 0.00 | 41 | 1016.0 |
| 20260505000247 | 21 | 279 | 0.0 | 0.0 | 0.00 | 0.00 | 0.00 | 39 | 1015.7 |
| 20260504235743 | 21 | 279 | 0.0 | 0.0 | 0.00 | 0.00 | 0.00 | 39 | 1015.7 |
| 20260504235239 | 22 | 345 | 0.0 | 0.0 | 0.00 | 0.00 | 0.00 | 37 | 1015.7 |
| 20260504234737 | 22 | 286 | 0.0 | 0.0 | 0.00 | 0.00 | 0.00 | 37 | 1015.6 |
| 20260504234234 | 22 | 241 | 1.6 | 8.0 | 0.00 | 0.00 | 0.00 | 35 | 1015.6 |
| 20260504233730 | 22 | 266 | 0.0 | 0.0 | 0.00 | 0.00 | 0.00 | 35 | 1015.7 |
| 20260504233226 | 23 | 248 | 0.0 | 1.6 | 0.00 | 0.00 | 0.00 | 34 | 1015.4 |
| 20260504232723 | 23 | 318 | 1.6 | 1.6 | 0.00 | 0.00 | 0.00 | 33 | 1015.3 |
| 20260504232220 | 23 | 166 | 0.0 | 4.8 | 0.00 | 0.00 | 0.00 | 33 | 1015.4 |
| 20260504231717 | 23 | 28 | 0.0 | 0.0 | 0.00 | 0.00 | 0.00 | 32 | 1015.3 |
| 20260504231213 | 23 | 189 | 0.0 | 4.8 | 0.00 | 0.00 | 0.00 | 31 | 1015.4 |
| 20260504230709 | 24 | 297 | 0.0 | 1.6 | 0.00 | 0.00 | 0.00 | 32 | 1015.2 |
| 20260504230208 | 24 | 342 | 0.0 | 1.6 | 0.00 | 0.00 | 0.00 | 31 | 1015.2 |
| 20260504225706 | 24 | 222 | 1.6 | 3.2 | 0.00 | 0.00 | 0.00 | 31 | 1015.3 |
| 20260504225202 | 25 | 153 | 1.6 | 3.2 | 0.00 | 0.00 | 0.00 | 31 | 1015.0 |
| 20260504224700 | 25 | 213 | 1.6 | 3.2 | 0.00 | 0.00 | 0.00 | 30 | 1015.4 |
| 20260504224156 | 25 | 134 | 4.8 | 8.0 | 0.00 | 0.00 | 0.00 | 28 | 1015.4 |
| 20260504223653 | 25 | 23 | 1.6 | 8.0 | 0.00 | 0.00 | 0.00 | 29 | 1015.3 |
| 20260504223148 | 25 | 141 | 3.2 | 3.2 | 0.00 | 0.00 | 0.00 | 28 | 1015.3 |
| 20260504222646 | 25 | 47 | 1.6 | 9.7 | 0.00 | 0.00 | 0.00 | 28 | 1015.4 |
| 20260504222142 | 25 | 63 | 1.6 | 8.0 | 0.00 | 0.00 | 0.00 | 29 | 1015.2 |
| 20260504221640 | 25 | 340 | 0.0 | 3.2 | 0.00 | 0.00 | 0.00 | 29 | 1015.4 |
| 20260504221137 | 26 | 145 | 8.0 | 11.3 | 0.00 | 0.00 | 0.00 | 28 | 1015.3 |
| 20260504220633 | 26 | 189 | 3.2 | 8.0 | 0.00 | 0.00 | 0.00 | 28 | 1015.3 |
| 20260504220131 | 26 | 211 | 1.6 | 3.2 | 0.00 | 0.00 | 0.00 | 30 | 1015.4 |
| 20260504215627 | 26 | 203 | 0.0 | 8.0 | 0.00 | 0.00 | 0.00 | 29 | 1015.4 |
| 20260504215125 | 25 | 328 | 0.0 | 11.3 | 0.00 | 0.00 | 0.00 | 30 | 1015.2 |
| 20260504214620 | 26 | 199 | 1.6 | 8.0 | 0.00 | 0.00 | 0.00 | 29 | 1015.5 |
| 20260504214117 | 26 | 248 | 0.0 | 0.0 | 0.00 | 0.00 | 0.00 | 30 | 1015.4 |
| 20260504213614 | 25 | 169 | 4.8 | 4.8 | 0.00 | 0.00 | 0.00 | 29 | 1015.4 |
| 20260504213110 | 25 | 206 | 4.8 | 9.7 | 0.00 | 0.00 | 0.00 | 29 | 1015.4 |
| 20260504212606 | 26 | 214 | 9.7 | 12.9 | 0.00 | 0.00 | 0.00 | 27 | 1015.4 |
| 20260504212104 | 26 | 268 | 1.6 | 12.9 | 0.00 | 0.00 | 0.00 | 28 | 1015.2 |
| 20260504211601 | 26 | 129 | 3.2 | 4.8 | 0.00 | 0.00 | 0.00 | 29 | 1015.3 |
| 20260504211057 | 26 | 57 | 1.6 | 4.8 | 0.00 | 0.00 | 0.00 | 29 | 1015.3 |
| 20260504210555 | 26 | 244 | 1.6 | 3.2 | 0.00 | 0.00 | 0.00 | 28 | 1015.4 |
| 20260504210051 | 26 | 230 | 1.6 | 1.6 | 0.00 | 0.00 | 0.00 | 29 | 1015.4 |
| 20260504205549 | 26 | 211 | 1.6 | 4.8 | 0.00 | 0.00 | 0.00 | 29 | 1015.5 |
| 20260504205047 | 26 | 207 | 6.4 | 11.3 | 0.00 | 0.00 | 0.00 | 28 | 1015.5 |
| 20260504204544 | 26 | 200 | 0.0 | 3.2 | 0.00 | 0.00 | 0.00 | 29 | 1015.6 |
| 20260504204043 | 26 | 121 | 1.6 | 3.2 | 0.00 | 0.00 | 0.00 | 29 | 1015.8 |
| 20260504203541 | 27 | 61 | 3.2 | 8.0 | 0.00 | 0.00 | 0.00 | 28 | 1015.7 |
| 20260504203038 | 26 | 289 | 6.4 | 9.7 | 0.00 | 0.00 | 0.00 | 28 | 1015.7 |
| 20260504202533 | 26 | 236 | 3.2 | 9.7 | 0.00 | 0.00 | 0.00 | 27 | 1015.7 |
| 20260504202031 | 26 | 90 | 3.2 | 4.8 | 0.00 | 0.00 | 0.00 | 27 | 1015.8 |
| 20260504201527 | 26 | 330 | 0.0 | 3.2 | 0.00 | 0.00 | 0.00 | 27 | 1016.0 |
| 20260504201025 | 26 | 137 | 1.6 | 3.2 | 0.00 | 0.00 | 0.00 | 30 | 1016.0 |
| 20260504200521 | 26 | 265 | 0.0 | 8.0 | 0.00 | 0.00 | 0.00 | 28 | 1016.1 |
| 20260504200018 | 26 | 48 | 4.8 | 8.0 | 0.00 | 0.00 | 0.00 | 29 | 1016.1 |
| 20260504195514 | 26 | 150 | 6.4 | 8.0 | 0.00 | 0.00 | 0.00 | 28 | 1016.1 |
| 20260504195011 | 25 | 65 | 1.6 | 3.2 | 0.00 | 0.00 | 0.00 | 31 | 1016.2 |
| 20260504194508 | 26 | 133 | 3.2 | 8.0 | 0.00 | 0.00 | 0.00 | 30 | 1016.1 |
| 20260504194003 | 25 | 203 | 1.6 | 3.2 | 0.00 | 0.00 | 0.00 | 30 | 1016.4 |
| 20260504193501 | 25 | 348 | 0.0 | 4.8 | 0.00 | 0.00 | 0.00 | 30 | 1016.4 |
| 20260504192959 | 25 | 70 | 1.6 | 4.8 | 0.00 | 0.00 | 0.00 | 30 | 1016.5 |
| 20260504192456 | 25 | 75 | 0.0 | 1.6 | 0.00 | 0.00 | 0.00 | 32 | 1016.4 |
| 20260504191955 | 25 | 93 | 1.6 | 1.6 | 0.00 | 0.00 | 0.00 | 33 | 1016.5 |
| 20260504191452 | 26 | 227 | 3.2 | 4.8 | 0.00 | 0.00 | 0.00 | 31 | 1016.6 |
| 20260504190947 | 25 | 274 | 0.0 | 4.8 | 0.00 | 0.00 | 0.00 | 31 | 1016.6 |
| 20260504190443 | 25 | 46 | 1.6 | 8.0 | 0.00 | 0.00 | 0.00 | 32 | 1016.7 |
| 20260504185940 | 25 | 13 | 0.0 | 3.2 | 0.00 | 0.00 | 0.00 | 33 | 1016.6 |
| 20260504185438 | 25 | 50 | 0.0 | 3.2 | 0.00 | 0.00 | 0.00 | 33 | 1016.9 |
| 20260504184933 | 25 | 333 | 0.0 | 3.2 | 0.00 | 0.00 | 0.00 | 32 | 1016.8 |
| 20260504184429 | 25 | 2 | 0.0 | 4.8 | 0.00 | 0.00 | 0.00 | 33 | 1016.7 |
| 20260504183926 | 25 | 271 | 0.0 | 8.0 | 0.00 | 0.00 | 0.00 | 31 | 1016.6 |
| 20260504183423 | 25 | 212 | 1.6 | 11.3 | 0.00 | 0.00 | 0.00 | 33 | 1016.8 |
| 20260504182921 | 25 | 296 | 4.8 | 11.3 | 0.00 | 0.00 | 0.00 | 33 | 1017.0 |
| 20260504182417 | 25 | 46 | 0.0 | 3.2 | 0.00 | 0.00 | 0.00 | 33 | 1017.0 |
| 20260504181914 | 25 | 333 | 0.0 | 3.2 | 0.00 | 0.00 | 0.00 | 31 | 1017.1 |
| 20260504181412 | 25 | 353 | 6.4 | 9.7 | 0.00 | 0.00 | 0.00 | 32 | 1017.2 |
| 20260504180911 | 25 | 146 | 3.2 | 4.8 | 0.00 | 0.00 | 0.00 | 30 | 1017.2 |
| 20260504180409 | 25 | 283 | 1.6 | 3.2 | 0.00 | 0.00 | 0.00 | 31 | 1017.4 |
| 20260504175907 | 25 | 292 | 0.0 | 4.8 | 0.00 | 0.00 | 0.00 | 32 | 1017.1 |
| 20260504175403 | 25 | 275 | 1.6 | 4.8 | 0.00 | 0.00 | 0.00 | 33 | 1017.4 |
| 20260504174901 | 24 | 7 | 0.0 | 8.0 | 0.00 | 0.00 | 0.00 | 33 | 1017.5 |
| 20260504174358 | 24 | 288 | 1.6 | 1.6 | 0.00 | 0.00 | 0.00 | 32 | 1017.6 |
| 20260504173855 | 24 | 158 | 3.2 | 4.8 | 0.00 | 0.00 | 0.00 | 31 | 1017.6 |
| 20260504173352 | 24 | 300 | 3.2 | 3.2 | 0.00 | 0.00 | 0.00 | 31 | 1017.6 |
| 20260504172849 | 23 | 283 | 0.0 | 3.2 | 0.00 | 0.00 | 0.00 | 34 | 1017.5 |
| 20260504172345 | 23 | 283 | 0.0 | 3.2 | 0.00 | 0.00 | 0.00 | 34 | 1017.5 |
| 20260504171841 | 25 | 297 | 4.8 | 8.0 | 0.00 | 0.00 | 0.00 | 34 | 1017.6 |
| 20260504171339 | 24 | 216 | 0.0 | 1.6 | 0.00 | 0.00 | 0.00 | 33 | 1017.8 |
| 20260504170836 | 23 | 299 | 0.0 | 1.6 | 0.00 | 0.00 | 0.00 | 36 | 1017.9 |
| 20260504170333 | 22 | 264 | 3.2 | 3.2 | 0.00 | 0.00 | 0.00 | 36 | 1017.9 |
| 20260504160251 | 22 | 171 | 3.2 | 3.2 | 0.00 | 0.00 | 0.00 | 38 | 1018.9 |
| 20260504150716 | 20 | 179 | 3.2 | 3.2 | 0.00 | 0.00 | 0.00 | 45 | 1019.1 |
| 20260504150213 | 20 | 6 | 1.6 | 1.6 | 0.00 | 0.00 | 0.00 | 45 | 1019.1 |
| 20260504141142 | 18 | 183 | 0.0 | 1.6 | 0.00 | 0.00 | 0.00 | 58 | 1019.6 |
| 20260504140639 | 17 | 161 | 1.6 | 3.2 | 0.00 | 0.00 | 0.00 | 61 | 1019.6 |
| 20260504140134 | 17 | 258 | 1.6 | 3.2 | 0.00 | 0.00 | 0.00 | 58 | 1019.3 |
| 20260504130603 | 15 | 353 | 0.0 | 0.0 | 0.00 | 0.00 | 0.00 | 68 | 1019.1 |
| 20260504110451 | 3 | 250 | 0.0 | 0.0 | 0.00 | 0.00 | 0.00 | 99 | 1019.1 |
| 20260504100413 | 4 | 250 | 0.0 | 0.0 | 0.00 | 0.00 | 0.00 | 99 | 1018.6 |
| 20260504081806 | 4 | 249 | 0.0 | 0.0 | 0.00 | 0.00 | 0.00 | 99 | 1018.1 |
| 20260504081303 | 4 | 249 | 0.0 | 0.0 | 0.00 | 0.00 | 0.00 | 99 | 1018.1 |
| 20260504080759 | 4 | 249 | 0.0 | 0.0 | 0.00 | 0.00 | 0.00 | 98 | 1018.0 |
| 20260504080255 | 4 | 249 | 0.0 | 0.0 | 0.00 | 0.00 | 0.00 | 98 | 1018.2 |